Regional Weather Roundup
Issued by NWS Bismarck, ND

Home | Current Version | Previous Version | Text Only | Print | Product List | Glossary On
Versions: 1 2 3 4 5 6 7 8 9 10 11 12 13 14 15 16 17 18 19 20 21 22 23 24 25 26 27 28 29 30 31 32 33 34 35 36 37 38 39 40 41 42 43 44 45 46 47 48 49 50
000
ASUS43 KBIS 050910
RWRBIS

NWR BROADCAST TEXT
NATIONAL WEATHER SERVICE BISMARCK ND
400 AM CDT SUN JUL 05 2015

NOTE: "FAIR" INDICATES FEW OR NO CLOUDS BELOW 12,000 FEET WITH NO
SIGNIFICANT WEATHER AND/OR OBSTRUCTIONS TO VISIBILITY.


CITY           SKY/WX    TMP DP  RH WIND       PRES   REMARKS
WILLISTON      CLOUDY    66  62  87 N13       29.83R
MINOT          MOCLDY    63  61  93 NW7       29.75F
MINOT AFB      PTCLDY    62  62 100 N8        29.75F
BISMARCK       CLEAR     69  68  96 E5        29.72S
DICKINSON      CLEAR     63  60  90 NE8       29.73F
GARRISON         N/A     66  62  87 NE9       29.73F
HETTINGER ARPT CLEAR     57  56  96 CALM      29.75S FOG
JAMESTOWN      CLEAR     69  65  86 CALM      29.73F
BEACH          FAIR      61  61 100 E5        29.74F
CROSBY         FAIR      61  61 100 NW12      29.87R
HARVEY         FAIR      66  66 100 NE7       29.72S
HAZEN          FAIR      64  63  94 NE5       29.73S
LINTON         FAIR      66  66 100 SE6       29.72S FOG
MANDAN         FAIR      68  68 100 CALM      29.73S FOG
OAKES            N/A     66  66 100 SE8       29.76R
STANLEY        FAIR      63  63 100 NE8       29.80S
$$

CITY           SKY/WX    TMP DP  RH WIND       PRES   REMARKS
GRAND FORKS    LGT RAIN  68  66  93 SE10      29.75F
GRAND FORKS AF CLOUDY    67  65  93 S10       29.76S
DEVILS LAKE    PTCLDY    64  61  88 N8        29.74R
FARGO          CLOUDY    72  65  78 SE10      29.74F
CANDO          CLOUDY    63  63 100 N7        29.76S
CAVALIER       FAIR      64  64 100 S6        29.75F
GRAFTON        FAIR      64  64 100 E6        29.75F
GWINNER          N/A     72  72 100 SE8       29.78R
LANGDON        PTSUNNY   64  64 100 NE7       29.77F FOG
ROLLA          CLOUDY    61  61 100 N5        29.80S
WALHALLA       FAIR      64  64 100 MISG      29.75S
$$

CITY           SKY/WX    TMP DP  RH WIND       PRES   REMARKS
ABERDEEN       CLOUDY    70  67  90 MISG      29.76R
MOBRIDGE       PTCLDY    72  71  97 E13       29.69S
BUFFALO          N/A     67  55  65 E5        29.69F
RAPID CITY     CLEAR     68  62  81 SW5       29.79F
GLASGOW        TSTM      59  52  77 N20       29.89F
SIDNEY         CLOUDY    66  61  82 N17       29.81R
WOLF POINT     LGT RAIN  65  60  84 NE13      29.85F
GLENDIVE       MOCLDY    66  63  88 N18G40    29.80R
MILES CITY     PTCLDY    68  63  84 NE14      29.69F
BAKER          PTCLDY    62  55  77 SE7       29.74F
$$

CITY           SKY/WX    TMP DP  RH WIND       PRES   REMARKS
BILLINGS       PTCLDY    70  57  63 NW17      29.79R
GREAT FALLS    CLOUDY    58  52  80 N15       30.08R
REGINA         CLOUDY    57  55  94 NW6       29.90R FOG
ESTEVAN        CLOUDY    61  61 100 NW6       29.87R
$$



USA.gov is the U.S. government's official web portal to all federal, state and local government web resources and services.